• In Hungary
  • List of Countries
  • For 7 days
  • Water Temperature
  • Satellite Maps
  • Weather Map
  • News
  • Weather Widgets
  • user-avatar
    Login

    Hourly Weather Hobart

    Today, 21 August, Monday

    Time Temperature Precipitation Wind Pressure Humidity
    00:00 +4°C° 0 mm 2 mps 749 mmHg 93%
    01:00 +4°C° 0 mm 2 mps 748 mmHg 92%
    02:00 +3°C° 0 mm 2 mps 748 mmHg 93%
    03:00 +3°C° 0 mm 2 mps 748 mmHg 94%
    04:00 +3°C° 0 mm 2 mps 748 mmHg 93%
    05:00 +2°C° 0 mm 2 mps 748 mmHg 94%
    06:00 +2°C° 0 mm 2 mps 748 mmHg 95%
    07:00 +1°C° 0 mm 2 mps 748 mmHg 96%
    08:00 +4°C° 0 mm 2 mps 747 mmHg 85%
    09:00 +6°C° 0 mm 2 mps 747 mmHg 74%
    10:00 +10°C° 0 mm 1 mps 747 mmHg 63%
    11:00 +11°C° 0 mm 1 mps 747 mmHg 57%
    12:00 +12°C° 0 mm 1 mps 747 mmHg 51%
    13:00 +13°C° 0 mm 1 mps 746 mmHg 45%
    14:00 +13°C° 0 mm 1 mps 746 mmHg 48%
    15:00 +13°C° 0 mm 1 mps 746 mmHg 51%
    16:00 +12°C° 0 mm 1 mps 746 mmHg 55%
    17:00 +11°C° 0 mm 1 mps 746 mmHg 62%
    18:00 +9°C° 0 mm 1 mps 746 mmHg 70%
    19:00 +8°C° 0 mm 1 mps 747 mmHg 78%
    20:00 +7°C° 0 mm 1 mps 747 mmHg 82%
    21:00 +5°C° 0 mm 2 mps 747 mmHg 87%
    22:00 +4°C° 0 mm 2 mps 747 mmHg 92%
    23:00 +3°C° 0 mm 2 mps 747 mmHg 92%

    Tomorrow, 22 August, Tuesday

    Time Temperature Precipitation Wind Pressure Humidity
    00:00 +3°C° 0 mm 2 mps 747 mmHg 93%
    01:00 +2°C° 0 mm 3 mps 747 mmHg 93%
    02:00 +1°C° 0 mm 3 mps 746 mmHg 93%
    03:00 +1°C° 0 mm 3 mps 746 mmHg 93%
    04:00 +1°C° 0 mm 3 mps 746 mmHg 93%
    05:00 +1°C° 0 mm 3 mps 746 mmHg 93%
    06:00 +1°C° 0 mm 3 mps 746 mmHg 93%
    07:00 +2°C° 0 mm 3 mps 746 mmHg 93%
    08:00 +4°C° 0 mm 3 mps 746 mmHg 84%
    09:00 +7°C° 0 mm 4 mps 746 mmHg 74%
    10:00 +11°C° 0 mm 4 mps 746 mmHg 65%
    11:00 +11°C° 0 mm 4 mps 746 mmHg 62%
    12:00 +12°C° 0 mm 4 mps 745 mmHg 60%
    13:00 +13°C° 0 mm 4 mps 745 mmHg 57%
    14:00 +13°C° 0 mm 4 mps 745 mmHg 59%
    15:00 +12°C° 0 mm 4 mps 745 mmHg 61%
    16:00 +12°C° 0 mm 4 mps 745 mmHg 64%
    17:00 +11°C° 0 mm 4 mps 745 mmHg 71%
    18:00 +8°C° 0 mm 4 mps 745 mmHg 79%
    19:00 +8°C° 0 mm 3 mps 745 mmHg 87%
    20:00 +7°C° 0 mm 4 mps 745 mmHg 87%
    21:00 +7°C° 0 mm 4 mps 745 mmHg 88%
    22:00 +7°C° 0 mm 4 mps 745 mmHg 88%
    23:00 +7°C° 0 mm 4 mps 745 mmHg 87%

    Day after tomorrow, 23 August, Wednesday

    Time Temperature Precipitation Wind Pressure Humidity
    00:00 +7°C° 0 mm 4 mps 745 mmHg 87%
    01:00 +8°C° 0 mm 4 mps 745 mmHg 86%
    02:00 +7°C° 0.1 mm 4 mps 745 mmHg 89%
    03:00 +8°C° 0.1 mm 3 mps 745 mmHg 91%
    04:00 +8°C° 0.1 mm 3 mps 745 mmHg 93%
    05:00 +7°C° 0.3 mm 2 mps 746 mmHg 95%
    06:00 +7°C° 0.3 mm 2 mps 746 mmHg 96%
    07:00 +7°C° 0.3 mm 2 mps 746 mmHg 97%
    08:00 +7°C° 0.5 mm 2 mps 746 mmHg 97%
    09:00 +8°C° 0.5 mm 2 mps 746 mmHg 96%
    10:00 +8°C° 0.5 mm 2 mps 746 mmHg 96%
    11:00 +8°C° 1.6 mm 2 mps 746 mmHg 96%
    12:00 +7°C° 1.6 mm 2 mps 745 mmHg 97%
    13:00 +7°C° 1.6 mm 2 mps 745 mmHg 97%
    14:00 +7°C° 1.8 mm 3 mps 745 mmHg 97%
    15:00 +7°C° 1.8 mm 3 mps 745 mmHg 97%
    16:00 +7°C° 1.8 mm 3 mps 744 mmHg 97%
    17:00 +6°C° 1.3 mm 4 mps 744 mmHg 98%
    18:00 +6°C° 1.3 mm 4 mps 745 mmHg 98%
    19:00 +6°C° 1.3 mm 4 mps 745 mmHg 98%
    20:00 +5°C° 1.1 mm 4 mps 745 mmHg 98%
    21:00 +5°C° 1.1 mm 5 mps 746 mmHg 97%
    22:00 +5°C° 1.1 mm 5 mps 746 mmHg 97%
    23:00 +5°C° 0.4 mm 5 mps 747 mmHg 96%

    24 August, Thursday

    Time Temperature Precipitation Wind Pressure Humidity
    00:00 +5°C° 0.4 mm 5 mps 747 mmHg 96%
    01:00 +5°C° 0.4 mm 5 mps 747 mmHg 96%
    02:00 +3°C° 0.1 mm 5 mps 748 mmHg 96%
    03:00 +3°C° 0.1 mm 5 mps 748 mmHg 96%
    04:00 +2°C° 0.1 mm 5 mps 749 mmHg 96%
    05:00 +1°C° 0 mm 5 mps 749 mmHg 96%
    06:00 0°C° 0 mm 4 mps 750 mmHg 97%
    07:00 0°C° 0 mm 4 mps 751 mmHg 97%
    08:00 +3°C° 0 mm 4 mps 751 mmHg 91%
    09:00 +4°C° 0 mm 3 mps 751 mmHg 84%
    10:00 +7°C° 0 mm 3 mps 752 mmHg 78%
    11:00 +9°C° 0 mm 3 mps 752 mmHg 67%
    12:00 +10°C° 0 mm 3 mps 752 mmHg 57%
    13:00 +12°C° 0 mm 3 mps 751 mmHg 47%
    14:00 +12°C° 0 mm 3 mps 751 mmHg 47%
    15:00 +12°C° 0 mm 3 mps 751 mmHg 48%
    16:00 +11°C° 0 mm 3 mps 751 mmHg 49%
    17:00 +9°C° 0 mm 2 mps 751 mmHg 60%
    18:00 +7°C° 0 mm 2 mps 752 mmHg 71%
    19:00 +4°C° 0 mm 2 mps 752 mmHg 82%
    20:00 +4°C° 0 mm 2 mps 752 mmHg 85%
    21:00 +3°C° 0 mm 2 mps 752 mmHg 88%
    22:00 +3°C° 0 mm 2 mps 752 mmHg 91%
    23:00 +3°C° 0 mm 2 mps 752 mmHg 91%

    25 August, Friday

    Time Temperature Precipitation Wind Pressure Humidity
    00:00 +3°C° 0 mm 2 mps 752 mmHg 92%
    01:00 +3°C° 0 mm 2 mps 751 mmHg 93%
    02:00 +3°C° 0 mm 2 mps 751 mmHg 94%
    03:00 +3°C° 0 mm 2 mps 751 mmHg 95%
    04:00 +3°C° 0 mm 2 mps 751 mmHg 96%
    05:00 +3°C° 0 mm 2 mps 751 mmHg 96%
    06:00 +4°C° 0 mm 2 mps 751 mmHg 97%
    07:00 +4°C° 0 mm 2 mps 751 mmHg 97%
    08:00 +6°C° 0 mm 2 mps 751 mmHg 87%
    09:00 +8°C° 0 mm 3 mps 750 mmHg 76%
    10:00 +11°C° 0 mm 3 mps 750 mmHg 65%
    11:00 +11°C° 0 mm 3 mps 750 mmHg 64%
    12:00 +11°C° 0 mm 3 mps 749 mmHg 64%
    13:00 +11°C° 0 mm 3 mps 748 mmHg 63%
    14:00 +11°C° 0 mm 3 mps 748 mmHg 65%
    15:00 +11°C° 0 mm 3 mps 747 mmHg 66%
    16:00 +11°C° 0 mm 3 mps 747 mmHg 67%
    17:00 +9°C° 0 mm 3 mps 747 mmHg 75%
    18:00 +8°C° 0 mm 3 mps 747 mmHg 82%
    19:00 +5°C° 0 mm 3 mps 747 mmHg 90%
    20:00 +5°C° 0 mm 3 mps 747 mmHg 90%
    21:00 +5°C° 0 mm 3 mps 747 mmHg 91%
    22:00 +5°C° 0 mm 3 mps 746 mmHg 91%
    23:00 +5°C° 0.5 mm 4 mps 746 mmHg 92%

    26 August, Saturday

    Time Temperature Precipitation Wind Pressure Humidity
    00:00 +5°C° 0.5 mm 5 mps 746 mmHg 92%
    01:00 +5°C° 0.5 mm 5 mps 746 mmHg 93%
    02:00 +5°C° 0.8 mm 5 mps 747 mmHg 94%
    03:00 +3°C° 0.8 mm 6 mps 747 mmHg 94%
    04:00 +3°C° 0.8 mm 6 mps 748 mmHg 95%
    05:00 +2°C° 0.3 mm 6 mps 749 mmHg 95%
    06:00 +2°C° 0.3 mm 6 mps 749 mmHg 94%
    07:00 +1°C° 0.3 mm 6 mps 750 mmHg 94%
    08:00 +2°C° 0 mm 6 mps 751 mmHg 85%
    09:00 +3°C° 0 mm 5 mps 751 mmHg 76%
    10:00 +5°C° 0 mm 5 mps 752 mmHg 67%
    11:00 +6°C° 0.1 mm 5 mps 752 mmHg 62%
    12:00 +6°C° 0.1 mm 5 mps 752 mmHg 56%
    13:00 +7°C° 0.1 mm 5 mps 752 mmHg 51%
    14:00 +7°C° 0 mm 5 mps 752 mmHg 52%
    15:00 +7°C° 0 mm 5 mps 752 mmHg 52%
    16:00 +6°C° 0 mm 4 mps 752 mmHg 53%
    17:00 +5°C° 0 mm 4 mps 752 mmHg 62%
    18:00 +3°C° 0 mm 4 mps 752 mmHg 70%
    19:00 0°C° 0 mm 4 mps 753 mmHg 79%
    20:00 +1°C° 0 mm 5 mps 752 mmHg 78%
    21:00 +1°C° 0 mm 5 mps 752 mmHg 78%
    22:00 +1°C° 0 mm 5 mps 752 mmHg 78%
    23:00 +2°C° 0.1 mm 5 mps 752 mmHg 79%
    Show more